Stations météo

réclame
Mon MeteoGroup
St. James's Park, Grande-Bretagne (3770): Température de l'air & dewpoint: 17.09.2019 06:00:00 - 23.09.2019 06:00:00 (BST)St. James's Park, Grande-Bretagne (3770): Température de l'air -20cm & Température de l'air -100cm: 17.09.2019 06:00:00 - 23.09.2019 06:00:00 (BST)St. James's Park, Grande-Bretagne (3770): Quantités de précipitations: 17.09.2019 06:00:00 - 23.09.2019 06:00:00 (BST)
Date & Time tt [°C] td [°C] tt -20cm [°C] tt -100cm [°C] rr [mm]
23.09.2019 06:00:00 15,0 12,4 - - 0,0
23.09.2019 05:00:00 15,0 12,5 - - 0,0
23.09.2019 04:00:00 15,0 12,6 - - 0,0
23.09.2019 03:00:00 14,6 12,6 - - 0,0
23.09.2019 02:00:00 14,8 12,8 - - 0,0
23.09.2019 01:00:00 14,5 12,4 - - 0,0
23.09.2019 00:00:00 15,1 12,4 - - 0,0
22.09.2019 23:00:00 15,6 12,9 - - 0,0
22.09.2019 22:00:00 16,0 12,6 - - 0,0
22.09.2019 21:00:00 16,5 12,1 - - 0,0
22.09.2019 20:00:00 17,1 12,6 - - 0,0
22.09.2019 19:00:00 17,6 13,6 - - 0,0
22.09.2019 18:00:00 18,0 14,3 - - 0,0
22.09.2019 17:00:00 18,0 14,3 - - 0,0
22.09.2019 16:00:00 18,3 14,7 - - 0,0
22.09.2019 15:00:00 17,9 15,4 - - 0,0
22.09.2019 14:00:00 16,9 15,4 - - 0,6
22.09.2019 13:00:00 18,7 15,1 - - 0,2
22.09.2019 12:00:00 22,5 16,2 - - 0,0
22.09.2019 11:00:00 21,3 16,1 - - 0,0
22.09.2019 10:00:00 20,0 16,8 17,0 17,4 0,2
22.09.2019 09:00:00 18,8 15,4 - - 0,0
22.09.2019 08:00:00 19,1 14,6 - - 0,0
22.09.2019 07:00:00 18,7 14,2 - - 0,0
22.09.2019 06:00:00 18,3 13,8 - - 0,0
22.09.2019 05:00:00 18,6 13,3 - - 0,0
22.09.2019 04:00:00 18,2 13,5 - - 0,0
22.09.2019 03:00:00 18,1 13,4 - - 0,0
22.09.2019 02:00:00 17,7 13,5 - - 0,0
22.09.2019 01:00:00 17,9 13,5 - - 0,0
22.09.2019 00:00:00 17,3 13,3 - - 0,0
21.09.2019 23:00:00 17,3 12,7 - - 0,0
21.09.2019 22:00:00 17,9 12,2 - - 0,0
21.09.2019 21:00:00 18,6 12,6 - - 0,0
21.09.2019 20:00:00 18,6 11,5 - - 0,0
21.09.2019 19:00:00 19,7 10,7 - - 0,0
21.09.2019 18:00:00 21,3 10,0 - - 0,0
21.09.2019 17:00:00 22,4 10,2 - - 0,0
21.09.2019 16:00:00 22,8 10,2 - - 0,0
21.09.2019 15:00:00 23,3 10,5 - - 0,0
21.09.2019 14:00:00 22,4 9,6 - - 0,0
21.09.2019 13:00:00 21,9 8,9 - - 0,0
21.09.2019 12:00:00 20,3 8,4 - - 0,0
21.09.2019 11:00:00 19,1 8,4 - - 0,0
21.09.2019 10:00:00 16,0 8,0 16,7 17,4 0,0
21.09.2019 09:00:00 14,6 7,4 - - 0,0
21.09.2019 08:00:00 13,5 7,1 - - 0,0
21.09.2019 07:00:00 12,9 6,5 - - 0,0
21.09.2019 06:00:00 13,6 6,6 - - 0,0
21.09.2019 05:00:00 13,8 6,1 - - 0,0
21.09.2019 04:00:00 13,8 6,8 - - 0,0
21.09.2019 03:00:00 14,0 6,9 - - 0,0
21.09.2019 02:00:00 14,8 6,8 - - 0,0
21.09.2019 01:00:00 15,3 7,7 - - 0,0
21.09.2019 00:00:00 15,9 9,4 - - 0,0
20.09.2019 23:00:00 15,9 10,7 - - 0,0
20.09.2019 22:00:00 15,5 10,7 - - 0,0
20.09.2019 21:00:00 15,4 9,9 - - 0,0
20.09.2019 20:00:00 15,9 9,5 - - 0,0
20.09.2019 19:00:00 16,5 8,6 - - 0,0
20.09.2019 18:00:00 17,6 7,6 - - 0,0
20.09.2019 17:00:00 19,3 4,3 - - 0,0
20.09.2019 16:00:00 20,2 5,6 - - 0,0
20.09.2019 15:00:00 20,3 7,3 - - 0,0
20.09.2019 14:00:00 20,8 8,7 - - 0,0
20.09.2019 13:00:00 19,5 7,8 - - 0,0
20.09.2019 12:00:00 19,0 8,0 - - 0,0
20.09.2019 11:00:00 18,4 8,3 - - 0,0
20.09.2019 10:00:00 16,0 8,6 16,7 17,5 0,0
20.09.2019 09:00:00 14,1 9,9 - - 0,0
20.09.2019 08:00:00 12,0 9,9 - - 0,0
20.09.2019 07:00:00 10,8 9,6 - - 0,0
20.09.2019 06:00:00 11,5 9,7 - - 0,0
20.09.2019 05:00:00 12,1 9,7 - - 0,0
20.09.2019 04:00:00 12,3 9,9 - - 0,0
20.09.2019 03:00:00 12,7 10,5 - - 0,0
20.09.2019 02:00:00 13,0 10,4 - - 0,0
20.09.2019 01:00:00 13,5 10,4 - - 0,0
20.09.2019 00:00:00 13,7 10,0 - - 0,0
19.09.2019 23:00:00 14,1 9,7 - - 0,0
19.09.2019 22:00:00 14,9 9,1 - - 0,0
19.09.2019 21:00:00 15,7 8,3 - - 0,0
19.09.2019 20:00:00 16,3 7,7 - - 0,0
19.09.2019 19:00:00 17,5 7,7 - - 0,0
19.09.2019 18:00:00 18,9 8,0 - - 0,0
19.09.2019 17:00:00 21,1 8,6 - - 0,0
19.09.2019 16:00:00 21,9 9,1 - - 0,0
19.09.2019 15:00:00 21,6 9,4 - - 0,0
19.09.2019 14:00:00 20,9 8,8 - - 0,0
19.09.2019 13:00:00 19,2 8,0 - - 0,0
19.09.2019 12:00:00 18,9 8,3 - - 0,0
19.09.2019 11:00:00 18,1 8,4 - - 0,0
19.09.2019 10:00:00 15,1 9,2 16,7 17,7 0,0
19.09.2019 09:00:00 13,0 9,2 - - 0,0
19.09.2019 08:00:00 9,7 8,9 - - 0,0
19.09.2019 07:00:00 8,9 8,2 - - 0,0
19.09.2019 06:00:00 9,2 8,4 - - 0,0
19.09.2019 05:00:00 9,4 8,3 - - 0,0
19.09.2019 04:00:00 9,6 8,4 - - 0,0
19.09.2019 03:00:00 9,8 8,3 - - 0,0
19.09.2019 02:00:00 10,4 7,9 - - 0,0
19.09.2019 01:00:00 11,1 7,8 - - 0,0
19.09.2019 00:00:00 11,7 7,7 - - 0,0
18.09.2019 23:00:00 13,3 8,1 - - 0,0
18.09.2019 22:00:00 14,0 7,8 - - 0,0
18.09.2019 21:00:00 14,8 7,6 - - 0,0
18.09.2019 20:00:00 16,3 6,9 - - 0,0
18.09.2019 19:00:00 17,5 5,8 - - 0,0
18.09.2019 18:00:00 18,4 5,2 - - 0,0
18.09.2019 17:00:00 19,6 5,1 - - 0,0
18.09.2019 16:00:00 19,5 5,2 - - 0,0
18.09.2019 15:00:00 19,4 5,2 - - 0,0
18.09.2019 14:00:00 19,5 5,8 - - 0,0
18.09.2019 13:00:00 18,8 6,0 - - 0,0
18.09.2019 12:00:00 17,3 5,7 - - 0,0
18.09.2019 11:00:00 15,6 6,0 - - 0,0
18.09.2019 10:00:00 13,0 6,2 17,0 17,7 0,0
18.09.2019 09:00:00 11,3 5,9 - - 0,0
18.09.2019 08:00:00 10,0 5,3 - - 0,0
18.09.2019 07:00:00 9,8 5,2 - - 0,0
18.09.2019 06:00:00 9,1 4,9 - - 0,0
18.09.2019 05:00:00 9,4 4,9 - - 0,0
18.09.2019 04:00:00 10,3 5,0 - - 0,0
18.09.2019 03:00:00 10,4 5,2 - - 0,0
18.09.2019 02:00:00 11,5 5,2 - - 0,0
18.09.2019 01:00:00 11,6 5,4 - - 0,0
18.09.2019 00:00:00 12,3 5,1 - - 0,0
17.09.2019 23:00:00 13,0 5,3 - - 0,0
17.09.2019 22:00:00 14,2 5,5 - - 0,0
17.09.2019 21:00:00 15,0 5,9 - - 0,0
17.09.2019 20:00:00 15,9 6,2 - - 0,0
17.09.2019 19:00:00 16,7 6,1 - - 0,0
17.09.2019 18:00:00 17,9 6,0 - - 0,0
17.09.2019 17:00:00 18,7 5,8 - - 0,0
17.09.2019 16:00:00 19,1 5,3 - - 0,0
17.09.2019 15:00:00 19,3 5,4 - - 0,0
17.09.2019 14:00:00 19,1 5,9 - - 0,0
17.09.2019 13:00:00 18,0 5,8 - - 0,0
17.09.2019 12:00:00 16,8 5,8 - - 0,0
17.09.2019 11:00:00 16,0 6,2 - - 0,0
17.09.2019 10:00:00 14,0 6,4 17,5 17,7 0,0
17.09.2019 09:00:00 12,9 7,2 - - 0,0
17.09.2019 08:00:00 11,7 7,7 - - 0,0
17.09.2019 07:00:00 11,2 7,7 - - 0,0
17.09.2019 06:00:00 12,1 8,0 - - 0,0

tt = Température de l'air
td = dewpoint
tt -20cm = Température de l'air -20cm
tt -100cm = Température de l'air -100cm
rr = Quantités de précipitations

stations d'obs. à proximité